Temp
20 21 20 19 19 19 19 20 19 19 19 20 21 21 20 19 19 19 19 19 19 19 19 19 19 19 19 19 19 19 19 19 19 19 19 19 19 19 19 18 18 18 18 18 18 18 17 18 17 17 17 18 18 18 17 18 18 18 18 18 18 18 18 18 18 18 18 18 18 17 17 17 17 17 17 17 16 16 16 16 16 17 17 17 16
19 20 20 19 19 19 19 19 19 18 18 19 20 20 19 19 19 19 19 19 19 19 19 19 19 19 19 19 19 19 19 19 19 19 19 19 19 19 19 19 18 18 18 18 18 18 17 17 17 17 17 18 18 18 17 17 17 18 18 18 17 17 18 18 18 18 18 18 17 17 17 17 17 17 17 17 16 16 16 17 17 17 17 16 16
19 19 19 19 19 19 19 19 18 18 18 18 19 19 19 19 19 19 19 19 19 19 19 19 19 19 19 19 19 19 19 19 19 19 19 19 19 19 19 18 18 18 18 18 18 18 17 17 17 17 17 17 18 17 17 17 17 18 18 17 17 18 18 18 18 18 18 18 18 17 17 17 17 17 17 17 17 17 17 17 16 17 17 16 16
18 19 19 19 19 19 19 19 18 18 18 18 18 19 19 19 19 19 19 19 19 19 19 19 19 19 19 19 19 19 19 19 19 19 18 19 19 19 18 18 18 18 18 18 18 18 17 17 17 17 17 17 18 17 17 17 17 17 17 17 18 18 18 18 18 18 18 18 18 18 17 17 17 17 17 17 17 17 17 17 16 17 17 16 17
18 19 19 19 19 19 19 19 18 18 18 18 18 19 19 19 19 19 19 19 19 19 19 19 19 19 19 19 19 19 19 19 19 19 19 19 19 18 18 18 18 18 18 18 18 17 17 17 17 17 17 18 18 17 17 17 17 17 17 18 17 17 17 17 18 18 18 18 18 18 17 18 17 17 17 17 18 17 17 17 16 16 16 16 17
19 19 19 19 19 19 19 19 18 18 18 18 19 19 19 19 19 19 19 19 19 19 19 19 19 19 19 19 19 19 19 19 19 19 19 19 19 18 18 18 18 18 18 18 18 17 17 17 17 17 17 17 17 17 17 17 17 17 17 17 17 17 17 17 17 17 18 18 18 18 18 18 18 18 17 17 18 17 17 17 17 17 17 17 17
19 19 19 19 19 19 19 19 18 18 18 18 19 19 19 19 19 19 19 19 19 19 19 19 19 19 19 19 19 19 19 19 19 19 19 19 18 18 18 18 18 18 18 18 18 17 17 17 17 17 17 17 17 17 17 17 17 17 17 17 17 17 17 18 17 17 18 18 17 18 18 18 18 18 18 18 18 18 17 18 18 18 17 17 17
18 19 19 19 19 19 19 18 18 18 18 19 19 19 19 19 19 19 19 19 19 19 19 19 19 19 19 19 19 19 19 19 19 19 19 19 18 18 18 18 18 18 18 18 18 17 17 17 17 17 17 17 17 17 17 17 17 17 17 17 17 18 18 18 18 18 18 18 18 18 18 18 18 18 18 18 18 18 18 18 18 19 18 17 17
18 19 19 19 19 19 19 18 18 18 18 19 19 19 19 19 19 19 19 19 19 19 19 19 19 19 19 19 19 19 19 19 19 19 19 18 18 18 18 18 18 18 18 18 18 17 17 17 17 17 17 17 17 17 17 17 17 18 18 18 18 18 19 19 19 19 18 18 18 18 18 18 18 18 18 18 18 18 18 18 18 18 18 18 17
18 18 19 19 19 19 18 18 18 18 19 19 19 19 19 19 19 19 19 19 19 19 19 19 19 19 19 19 19 19 19 19 19 18 18 18 18 18 18 18 18 18 17 17 17 17 17 18 17 17 17 17 17 17 17 18 18 18 18 18 18 19 19 20 20 19 19 19 18 18 19 19 18 18 18 18 18 18 19 19 18 18 18 18 18
18 18 19 19 19 19 18 18 18 18 19 19 19 19 19 19 19 19 19 19 19 19 19 19 19 19 19 19 19 19 19 19 18 18 18 18 18 18 18 18 18 18 17 17 17 17 17 17 17 17 17 18 18 18 18 18 18 18 18 19 19 20 20 20 20 20 20 19 19 19 19 19 18 18 18 18 18 18 18 19 18 18 18 18 18
18 18 18 19 19 18 18 18 18 18 19 19 19 19 19 19 19 19 19 19 19 19 19 19 19 19 19 19 19 19 18 18 18 18 18 18 18 18 18 18 18 18 17 17 17 17 17 18 18 18 18 18 18 18 18 18 18 19 19 19 19 20 20 21 20 20 20 19 19 19 19 19 18 18 18 18 18 18 18 18 18 18 18 19 19
18 18 18 19 19 18 18 18 18 18 19 19 19 19 19 19 19 19 19 19 19 19 19 19 19 19 19 19 19 18 18 18 18 18 18 18 18 18 18 18 18 18 17 17 17 17 18 18 18 18 18 18 18 18 18 19 19 19 19 19 20 20 21 21 21 20 20 20 20 20 19 19 19 19 19 18 18 19 19 19 18 19 19 19 19
18 18 18 19 18 18 18 18 18 18 19 19 19 19 19 19 19 19 19 19 19 19 19 19 19 19 19 18 18 18 18 18 18 18 18 18 18 18 18 18 18 18 18 17 17 17 18 18 18 18 18 18 19 19 19 19 19 19 19 19 20 20 21 21 21 21 20 20 20 20 19 19 19 19 19 19 19 19 19 19 19 19 19 19 19
18 18 18 19 18 18 18 18 18 19 19 19 19 19 19 19 19 19 19 19 19 19 19 18 18 18 18 19 19 19 19 19 19 18 18 18 19 19 19 19 18 18 18 18 18 18 18 19 19 19 19 19 19 19 19 19 19 19 19 19 20 20 20 21 21 21 20 20 20 19 19 19 19 19 20 20 19 20 19 19 19 19 19 19 19
18 18 18 18 18 18 18 18 18 19 19 19 19 19 19 19 19 19 19 19 19 19 18 18 18 19 19 19 19 19 19 19 18 18 18 19 19 19 19 19 19 19 18 18 18 18 18 19 19 19 19 19 19 19 19 19 19 19 19 19 20 20 20 20 20 20 20 20 19 20 19 19 20 20 20 20 20 20 19 19 19 19 19 19 19
18 18 18 18 18 18 18 18 18 19 19 19 19 19 19 19 19 19 19 19 19 18 18 19 19 19 19 19 19 18 18 18 18 18 18 19 19 19 19 19 19 19 18 18 18 18 18 19 19 19 19 19 19 19 19 19 19 20 20 19 20 20 20 20 20 20 20 20 20 20 19 19 20 20 20 20 20 20 20 19 19 19 19 19 19
18 18 18 18 18 18 18 18 18 19 19 19 19 19 19 19 19 19 19 18 18 18 19 19 19 19 19 18 18 18 18 18 18 18 18 18 19 19 19 19 19 19 19 19 19 18 18 19 19 19 19 19 20 20 20 20 20 20 20 20 20 20 20 20 20 20 20 20 20 20 20 20 20 20 20 20 20 20 20 20 19 19 19 19 18
18 18 18 18 18 18 18 18 18 19 19 19 19 19 19 19 19 18 18 18 18 18 19 19 19 18 18 18 18 18 18 18 18 18 18 18 18 18 19 19 19 19 19 19 19 19 19 19 19 19 20 20 20 20 20 20 20 20 20 20 20 20 20 20 20 20 20 20 20 20 20 20 20 20 20 20 19 19 19 19 19 19 19 18 18
18 18 18 18 18 18 18 18 18 19 19 19 19 19 19 19 18 18 18 18 18 19 19 18 18 18 18 18 18 18 18 18 18 18 18 18 18 18 18 19 19 19 19 19 19 19 19 19 19 19 20 20 20 20 20 20 20 20 20 20 20 20 20 20 20 20 20 20 20 20 20 20 20 20 20 20 19 19 19 19 19 19 18 18 18
18 18 18 18 18 18 18 18 18 18 18 19 19 19 19 19 19 18 18 18 18 19 18 18 18 18 18 18 18 18 18 18 18 18 18 18 18 18 18 19 19 19 19 19 20 20 20 20 20 20 20 20 20 20 20 20 20 20 20 20 20 20 20 20 20 20 20 20 20 20 20 20 20 20 20 20 19 19 19 19 18 18 17 17 17
18 18 18 18 18 18 18 18 18 18 18 19 19 19 19 19 19 18 18 18 18 18 18 18 18 18 18 18 18 18 18 18 18 18 18 18 18 18 18 18 18 18 19 19 20 20 20 20 20 20 20 20 20 20 20 20 21 21 21 21 21 21 21 21 21 21 20 20 20 20 20 20 20 20 20 20 20 19 19 19 18 17 17 16 16
18 18 18 18 18 18 18 18 18 18 18 19 19 19 19 19 18 18 18 18 18 18 18 18 18 18 18 18 18 18 18 18 18 18 18 18 18 18 18 18 19 19 19 19 19 20 20 21 21 21 20 20 20 20 20 20 21 21 21 21 21 21 21 21 21 21 20 20 20 20 20 20 20 20 20 20 20 19 19 18 17 17 17 16 16
18 18 18 18 18 18 18 18 18 18 18 19 19 19 18 18 18 18 18 18 17 18 18 18 18 18 18 18 18 18 18 18 18 18 18 18 18 18 18 18 19 19 19 19 19 19 20 20 21 21 21 20 20 20 20 20 21 21 21 21 21 21 21 21 21 20 20 20 20 20 20 20 20 20 20 20 19 19 18 17 17 17 17 16 17
18 18 17 17 18 18 18 18 18 18 18 18 18 18 18 18 18 18 17 17 18 18 18 18 18 18 18 18 18 18 18 18 18 18 18 18 18 18 18 18 18 19 19 19 19 19 20 20 20 20 20 20 20 20 20 20 21 21 21 21 21 21 21 20 20 20 20 19 19 19 20 20 20 19 19 19 19 18 18 17 17 17 17 17 17
18 18 18 17 18 18 18 18 18 18 18 18 18 18 18 18 18 17 17 17 18 18 18 18 18 18 18 18 18 19 18 18 18 18 18 18 18 18 18 18 18 18 19 19 19 19 19 20 20 20 20 20 20 20 20 20 20 20 20 20 20 20 20 20 20 19 19 19 19 19 19 19 19 19 19 19 19 19 18 17 17 17 17 17 17
18 18 18 18 18 18 18 17 18 18 18 18 18 18 18 18 17 17 17 17 18 18 18 17 17 18 18 18 18 18 18 18 18 18 18 18 18 18 18 19 18 18 19 19 19 19 19 19 19 20 20 20 20 20 20 20 20 20 19 19 19 20 19 19 19 19 19 18 18 19 19 19 19 18 18 18 18 18 18 17 17 17 16 17 17
18 18 18 18 17 18 18 18 18 18 18 18 18 18 18 18 17 17 17 17 18 17 17 17 17 18 18 18 18 18 18 18 18 18 18 18 18 18 18 18 18 18 19 19 19 19 19 19 19 19 19 19 19 19 19 19 19 19 19 19 19 19 19 19 19 18 18 17 17 17 18 18 18 18 18 18 18 18 18 17 16 17 17 17 17
18 18 17 17 17 17 18 18 18 18 18 18 18 18 18 17 17 17 17 17 17 17 17 17 18 18 18 18 18 18 18 18 18 18 18 18 18 18 18 18 18 18 18 18 19 19 19 19 19 19 19 19 19 19 19 19 19 19 19 19 19 19 19 18 18 18 17 16 16 16 17 17 17 17 17 17 17 17 17 17 17 17 17 16 17
17 17 17 17 17 17 17 18 18 18 18 17 17 17 17 17 17 17 17 17 17 17 18 18 18 18 18 18 18 18 18 18 18 18 18 18 18 18 18 18 18 18 18 18 18 19 19 19 18 18 18 18 18 18 18 18 18 18 18 18 18 18 18 18 17 17 16 16 16 16 16 17 17 17 17 17 17 16 16 16 16 16 16 16 16
17 17 17 17 17 17 17 18 17 17 17 17 17 17 17 17 18 17 17 17 17 18 18 18 18 18 18 18 18 18 18 18 18 18 18 18 18 18 18 18 18 18 18 18 18 18 18 18 18 18 18 18 18 18 18 18 18 18 18 18 18 17 17 17 17 17 16 16 16 16 15 15 16 16 16 17 16 16 15 15 16 16 16 16 16
17 17 17 17 17 17 17 17 17 17 17 17 17 17 18 18 18 18 17 18 17 18 18 18 18 18 18 18 18 18 18 18 18 18 18 18 18 18 18 18 18 18 18 18 18 18 18 18 18 18 18 18 18 18 18 18 17 17 17 17 17 17 17 17 16 16 16 16 16 15 14 14 14 15 16 16 16 15 15 15 15 15 15 15 15
18 17 17 17 17 17 17 17 17 17 17 17 17 18 18 18 18 18 18 18 18 18 18 18 18 18 18 18 18 18 18 18 18 18 18 18 17 18 18 18 18 17 17 17 18 18 18 18 18 18 18 18 18 18 17 17 17 17 17 16 16 16 16 16 16 16 15 15 15 15 14 13 13 14 15 15 15 15 15 15 15 15 15 14 14
18 18 17 17 17 17 17 17 17 17 17 17 18 18 18 18 18 18 18 18 18 18 18 18 18 18 18 18 18 18 18 18 18 18 18 18 17 17 17 17 17 17 17 17 17 17 17 18 17 17 17 18 17 17 17 17 16 16 16 16 16 16 16 15 15 15 15 15 14 14 14 14 14 13 13 14 14 14 15 15 15 15 15 14 14
18 18 17 17 17 17 17 17 17 17 17 17 17 18 18 18 18 18 18 18 18 18 18 18 18 18 18 18 18 18 18 18 18 18 18 17 17 17 17 17 17 17 17 17 17 17 17 17 17 17 17 17 17 17 17 16 16 16 16 16 16 15 15 15 15 15 14 14 14 14 14 13 13 13 12 12 13 13 13 14 14 14 14 14 14
18 17 17 17 17 17 17 17 17 17 17 17 17 18 18 18 18 18 18 18 18 18 18 17 17 18 17 17 18 18 18 18 18 18 18 17 17 17 17 17 17 17 17 17 17 17 17 17 17 17 17 17 17 17 16 16 15 16 15 15 15 15 15 15 14 14 14 14 14 13 13 13 12 12 12 11 12 12 13 13 13 14 14 14 14
18 17 17 17 17 17 17 17 17 17 17 17 17 18 18 18 18 18 18 18 17 17 17 17 17 17 17 17 18 18 17 17 17 17 17 17 17 17 17 17 17 17 17 17 17 17 17 17 17 17 16 16 16 16 16 15 15 15 15 15 15 15 15 14 14 14 13 13 13 12 12 12 11 11 12 11 11 12 12 13 13 13 13 13 13
17 17 17 17 17 17 17 17 17 17 17 17 17 17 17 17 18 18 17 17 17 17 17 17 17 17 17 17 18 17 17 18 17 17 17 17 17 17 16 16 16 16 17 17 17 17 16 16 16 16 16 16 17 16 15 14 14 14 14 14 14 14 14 14 14 13 13 12 12 11 11 11 11 11 11 11 11 11 12 12 13 13 13 13 13
17 17 17 17 17 17 17 17 17 17 16 17 17 17 17 17 17 17 17 17 17 17 17 17 17 17 17 17 17 17 18 18 17 17 17 17 17 17 16 16 16 16 16 16 17 16 16 16 16 15 16 16 17 16 14 14 13 13 13 13 14 14 13 13 13 13 12 11 11 10 10 10 10 10 10 10 10 10 11 11 12 12 12 12 12
17 17 17 17 17 17 17 17 17 16 16 17 17 17 16 16 16 16 16 16 16 16 17 17 17 17 17 17 17 17 17 17 17 17 17 17 17 17 17 16 16 16 16 16 16 16 16 15 15 15 16 16 16 15 14 13 13 12 12 12 12 13 13 13 12 12 11 11 10 10 9 9 9 9 9 9 9 9 9 10 10 10 11 11 12
17 17 17 17 17 17 16 16 17 16 16 16 16 16 16 16 16 16 16 16 16 16 17 17 17 17 17 17 17 17 17 17 17 17 17 17 17 17 17 16 16 16 16 16 16 16 15 15 15 15 16 16 15 13 13 13 13 13 12 11 11 11 12 12 12 11 11 10 9 9 9 9 9 9 9 8 8 8 8 8 8 9 9 10 11
17 17 17 17 17 16 16 17 17 17 17 17 17 16 16 16 16 16 16 16 16 16 17 16 17 17 17 17 17 17 17 17 17 17 17 17 17 16 16 16 16 15 16 16 16 16 15 15 15 15 16 16 14 13 13 13 15 15 14 14 13 11 11 11 11 10 10 10 9 9 8 9 8 8 8 8 8 8 8 8 8 8 8 9 9
16 17 17 17 16 16 16 17 17 17 17 18 17 16 16 16 16 16 16 16 15 16 17 16 16 16 16 16 17 17 17 17 17 16 16 16 16 16 15 15 15 15 15 15 16 16 15 14 15 15 15 14 14 14 13 13 14 14 15 16 15 14 13 12 11 10 9 9 9 8 8 8 8 8 8 8 8 7 7 7 7 7 7 7 8
16 16 17 16 16 16 16 16 16 17 17 17 16 16 16 16 16 16 16 16 15 16 16 16 16 16 16 16 16 16 16 16 16 16 16 15 15 15 15 15 15 15 15 15 16 16 15 14 14 15 14 13 12 13 13 13 13 14 16 16 16 17 16 14 12 11 10 9 9 8 8 8 8 8 8 8 8 7 7 7 7 6 6 7 7
16 16 16 16 16 16 15 16 17 18 17 16 16 16 16 16 15 15 15 15 15 15 16 15 15 16 16 16 16 16 16 16 15 15 15 15 15 15 15 15 15 15 15 15 15 15 14 14 14 14 14 13 11 11 12 13 13 14 15 15 16 17 16 14 13 12 10 10 9 8 8 8 8 8 8 8 8 7 7 7 7 7 7 7 7
16 16 16 16 16 16 16 17 18 17 16 16 16 16 16 15 15 14 14 14 14 15 15 15 15 15 15 16 15 15 15 15 15 14 14 14 14 14 14 14 14 14 15 15 15 14 14 13 13 13 13 13 11 10 11 11 13 13 13 14 14 15 15 14 14 14 12 10 10 9 8 8 8 8 8 8 8 7 7 7 7 7 7 7 7
16 16 16 15 16 16 16 17 17 16 16 16 16 16 16 15 15 15 14 14 14 14 15 15 15 15 15 15 15 14 14 14 14 14 14 14 14 14 14 14 14 14 14 14 14 13 13 13 13 13 13 12 11 10 10 10 11 11 11 12 12 12 12 13 14 15 14 12 10 9 8 8 8 8 8 8 7 7 7 7 7 7 6 6 6
15 16 16 15 16 16 16 16 16 16 16 16 16 16 15 15 14 15 14 15 15 15 15 15 15 15 15 14 14 14 13 13 13 13 13 13 13 13 13 14 13 13 13 13 13 12 12 12 12 12 12 12 11 10 10 10 10 9 9 10 10 10 10 10 11 12 14 14 12 11 9 8 8 8 7 7 7 7 7 7 7 7 7 6 6
15 15 16 16 16 16 16 16 16 16 16 16 16 15 15 15 15 15 15 15 15 15 15 15 14 14 14 14 13 13 13 13 13 13 13 13 13 13 13 13 13 13 13 12 12 12 11 11 11 11 11 11 11 11 10 9 9 9 9 9 9 9 9 9 9 10 12 13 13 12 10 9 9 8 7 7 7 7 7 7 7 7 7 7 6
15 15 16 16 16 16 16 16 15 15 16 16 16 15 15 15 15 15 15 15 15 15 15 14 14 13 13 13 13 13 12 12 12 12 13 13 12 12 12 12 12 12 12 11 11 11 11 11 11 11 11 11 11 11 10 10 9 9 8 9 9 9 9 9 9 9 10 11 12 11 11 11 11 10 8 7 7 7 7 7 7 7 7 7 7
15 15 16 16 16 16 16 16 15 15 15 16 16 15 14 15 16 16 16 15 15 14 14 13 13 13 13 13 12 12 12 12 12 12 12 12 12 12 12 12 12 11 11 11 11 10 10 10 10 10 11 11 10 10 10 9 9 8 8 8 8 8 9 9 8 9 10 10 11 11 11 10 11 10 9 8 7 8 8 7 7 7 7 7 7
Height
808 810 811 813 814 815 817 819 820 821 822 823 823 824 825 826 827 828 829 830 831 831 830 830 831 831 832 832 833 833 834 834 834 834 834 834 835 835 835 836 836 836 835 835 835 834 834 834 835 836 836 837 838 838 839 839 840 840 841 841 842 842 842 842 842 842 843 843 843 842 842 842 842 841 841 841 841 841 841 840 840 841 841 840 839
807 810 811 814 815 816 818 820 821 822 823 823 824 825 825 826 827 829 830 831 831 831 831 831 832 832 833 833 834 834 835 835 835 835 835 835 836 836 836 836 836 836 836 836 836 835 835 835 836 836 837 838 839 839 839 840 840 841 842 842 842 842 843 843 843 843 844 843 843 843 843 843 843 842 842 842 842 842 841 841 840 841 841 840 840
808 810 812 814 816 817 819 820 822 823 823 824 825 825 826 827 828 829 830 831 832 832 832 832 833 833 833 834 834 835 835 836 836 836 836 836 836 837 837 837 837 837 837 837 836 836 836 836 836 837 838 839 840 840 840 841 841 842 842 843 843 843 844 844 844 844 844 844 844 844 844 844 844 843 843 843 842 842 842 841 841 841 841 840 840
810 811 814 815 817 818 819 821 822 823 824 824 825 826 827 827 828 830 831 832 833 833 833 834 834 834 834 835 835 835 836 837 837 837 837 837 837 837 838 838 838 838 837 837 837 837 836 836 837 838 839 840 841 841 841 842 842 843 843 844 844 844 845 845 845 845 845 845 845 845 845 845 845 844 844 843 843 843 842 842 842 842 841 841 841
811 813 814 816 818 819 820 821 822 824 825 825 826 827 828 828 829 830 831 833 833 834 834 834 834 835 835 835 836 836 837 837 838 838 838 838 838 838 838 838 838 839 838 838 838 837 837 837 838 839 840 841 842 842 842 843 843 844 844 845 845 845 845 846 846 845 845 845 845 845 846 846 846 845 844 844 844 843 843 843 843 842 842 842 841
811 813 815 817 818 819 820 821 822 824 825 826 827 828 828 829 829 830 832 833 834 834 834 835 835 835 836 836 837 837 837 838 838 839 839 839 839 839 839 839 839 839 839 839 838 838 838 838 839 840 841 842 843 843 844 844 845 845 845 846 846 846 846 847 846 846 846 846 846 846 846 846 846 846 845 845 844 844 844 843 843 843 842 842 842
811 813 815 817 818 819 820 821 822 824 825 826 828 829 829 829 830 831 832 833 834 835 835 835 836 836 836 837 837 838 838 838 839 839 839 839 839 839 839 839 840 840 839 839 839 839 839 840 840 841 842 843 843 844 845 845 846 846 846 847 847 847 847 847 847 847 847 847 847 847 847 847 847 847 846 846 845 845 844 844 844 843 843 842 842
812 814 816 817 818 819 820 822 823 824 826 827 829 830 830 830 830 831 832 833 834 834 835 835 836 837 837 837 838 838 838 839 839 840 840 840 840 840 840 840 840 840 840 839 840 840 840 841 841 841 842 843 844 844 845 846 846 847 847 847 847 847 847 847 847 847 847 848 848 848 848 848 848 848 847 847 846 845 845 844 844 844 843 843 843
813 815 817 818 819 819 820 822 824 825 827 828 830 830 831 830 831 831 832 833 833 834 835 836 836 837 838 838 839 839 839 840 840 840 840 840 840 840 840 840 840 840 840 840 840 841 841 841 842 842 843 844 844 845 846 846 847 847 847 847 847 847 847 847 847 847 848 848 848 848 848 848 849 849 848 847 847 846 845 845 845 844 844 844 843
814 816 818 819 820 820 821 823 825 827 828 829 830 831 831 831 831 831 832 833 833 834 835 836 837 837 838 839 839 840 840 840 840 841 841 841 840 840 841 841 841 841 841 841 841 841 842 842 842 843 843 844 844 845 846 847 847 848 848 848 848 848 848 848 848 848 848 848 848 848 848 848 848 849 848 847 847 846 846 845 845 845 844 844 844
815 817 818 819 820 820 821 823 826 827 829 829 830 831 831 831 832 832 833 833 834 835 836 837 837 838 838 839 839 840 840 841 841 841 841 841 841 841 841 841 841 841 842 842 842 842 842 843 843 843 844 844 845 846 847 847 848 848 848 848 848 848 848 848 848 848 848 849 849 849 848 848 848 849 847 847 847 846 846 846 845 845 845 844 844
815 816 818 819 820 821 822 824 826 828 829 830 830 831 831 832 833 833 834 834 835 836 837 837 838 838 839 839 840 840 841 841 842 842 842 841 841 841 841 841 841 842 842 842 842 843 843 843 843 844 845 845 846 847 847 848 848 849 849 849 848 848 848 848 848 849 849 849 849 848 848 848 848 848 847 847 847 846 846 846 846 845 845 844 843
814 816 818 820 821 822 823 825 827 829 830 831 831 831 832 833 834 834 834 835 835 836 837 838 838 839 839 839 840 841 841 841 842 842 842 842 841 841 841 841 841 842 842 843 843 843 844 844 844 845 845 846 847 847 848 849 849 849 849 849 849 849 848 848 848 848 849 849 849 849 849 849 849 848 847 847 847 847 846 846 846 845 845 844 843
814 816 818 820 822 823 824 826 828 830 831 831 832 832 833 834 834 834 835 835 836 837 837 838 839 839 839 839 840 840 841 841 842 842 842 842 842 841 841 841 842 842 842 843 843 844 845 845 845 845 846 846 847 848 848 849 849 849 850 849 849 849 849 849 848 848 849 849 849 849 849 849 848 848 847 847 847 847 846 846 846 845 845 844 843
814 816 818 820 821 823 825 827 829 830 831 832 832 833 834 834 835 835 835 836 836 837 837 838 839 839 839 840 840 840 841 841 842 842 842 842 842 842 842 842 842 843 843 843 844 844 845 846 846 846 847 847 848 848 849 849 850 850 850 850 850 850 849 849 849 848 848 849 849 849 849 849 848 848 847 847 847 846 846 846 846 845 844 843 842
815 816 818 820 821 823 825 827 829 830 831 832 833 834 834 835 836 836 836 837 837 837 838 838 839 839 839 840 840 840 841 841 842 842 842 842 842 842 842 842 842 843 843 843 844 844 845 846 846 847 847 847 848 848 849 849 850 850 850 850 850 850 850 849 849 849 849 849 849 848 848 848 848 847 847 847 846 846 846 845 845 844 843 843 842
816 817 819 820 821 823 824 827 828 830 831 833 834 834 835 836 837 837 838 838 838 838 839 839 839 839 839 840 840 840 840 841 842 842 843 843 843 842 842 843 843 843 843 844 844 845 845 846 847 847 847 848 848 849 849 849 850 850 850 850 850 850 850 849 849 849 849 849 848 848 848 848 847 847 846 846 846 845 845 845 844 844 843 843 843
817 818 819 820 821 823 825 827 829 830 832 833 834 835 836 837 838 839 839 839 839 840 840 840 840 840 840 840 840 841 841 841 842 842 843 843 843 843 843 843 843 843 844 844 844 845 845 846 847 847 848 848 849 849 849 850 850 850 850 850 850 850 850 849 849 849 849 849 848 848 848 848 847 846 846 846 845 845 845 844 844 843 843 843 843
817 818 819 820 821 823 824 826 828 830 831 832 833 835 836 837 838 839 840 840 840 841 841 841 841 841 841 840 841 841 842 842 842 843 843 844 844 844 844 844 844 844 844 844 844 845 845 846 847 847 848 848 849 849 849 849 850 850 850 850 850 850 850 850 849 849 849 849 849 848 848 847 847 846 845 845 845 844 844 843 843 842 843 843 843
817 818 818 819 821 822 824 826 827 829 830 831 833 834 836 837 838 839 840 841 841 842 842 842 842 842 842 841 842 842 842 843 843 844 844 845 845 845 845 844 845 845 845 845 845 845 845 846 847 848 848 848 849 849 849 849 849 849 850 850 850 850 850 849 849 849 849 849 849 848 848 847 846 846 845 844 844 843 843 843 843 842 843 843 844
817 817 817 818 820 822 823 824 826 827 829 830 832 833 835 837 838 839 840 841 842 843 843 843 844 844 843 842 842 843 843 843 844 845 845 845 845 846 846 845 845 846 846 845 845 845 845 846 847 848 848 848 849 849 849 849 849 849 849 849 849 850 849 849 849 849 849 849 848 848 848 847 846 845 845 844 843 843 842 843 843 843 843 844 844
815 816 817 818 820 822 823 825 826 827 829 830 831 833 835 836 838 839 840 841 842 843 844 844 844 845 844 844 843 843 843 843 844 845 845 846 846 846 846 846 846 846 846 846 846 845 845 846 846 847 848 849 849 849 849 849 849 849 849 849 849 849 849 849 849 849 849 849 848 848 847 846 846 845 844 843 842 842 842 843 844 843 843 843 844
814 815 817 819 821 822 824 825 827 828 830 831 832 833 835 837 838 840 840 842 843 844 844 844 845 845 845 845 845 844 844 844 844 845 845 846 847 847 847 847 847 846 847 847 846 846 845 846 846 847 848 849 849 849 849 849 849 849 849 849 849 849 848 848 848 849 848 848 848 847 846 846 845 844 844 843 842 842 842 843 843 842 842 842 842
812 814 817 820 822 823 824 826 827 829 831 832 833 834 836 838 839 840 841 842 843 844 844 845 845 845 846 846 846 845 845 845 845 845 845 846 846 847 847 847 847 847 847 847 847 846 846 846 846 847 848 849 849 849 849 849 849 849 849 848 848 848 848 848 848 848 848 848 847 846 845 845 844 844 843 842 842 841 841 842 841 841 841 840 840
812 815 817 820 822 824 824 825 827 829 831 832 833 834 836 838 839 840 841 842 842 843 844 845 845 845 846 846 846 846 845 845 845 845 845 846 846 846 847 847 848 847 847 847 848 847 846 846 847 847 848 849 849 849 849 849 849 848 848 848 848 848 848 848 847 848 848 847 846 845 844 844 843 843 842 841 841 840 840 840 840 840 839 839 839
813 815 817 820 822 823 824 825 827 829 831 832 833 835 836 838 839 840 841 842 842 843 844 845 845 845 846 846 847 846 846 846 846 846 846 846 846 846 846 847 848 848 847 847 848 848 847 847 847 848 848 849 849 849 849 849 849 848 848 848 848 848 847 847 847 847 847 847 846 844 844 843 842 842 841 841 840 839 839 839 839 838 837 837 837
813 815 817 820 821 822 824 825 826 828 830 832 833 835 836 838 839 840 841 842 842 843 844 845 845 845 846 846 847 846 846 846 846 846 846 846 846 846 846 847 848 848 848 848 848 848 847 847 847 848 848 849 849 849 849 849 849 848 848 848 847 847 847 847 847 847 847 846 845 844 843 842 842 842 841 841 840 840 839 838 838 837 836 836 835
812 815 817 819 821 822 823 824 826 828 830 831 833 834 836 838 839 840 842 842 843 843 843 844 845 845 846 846 847 846 846 846 846 846 846 846 846 846 847 847 847 848 848 848 848 847 848 847 848 848 848 849 849 849 849 849 849 848 848 848 847 847 847 847 847 847 847 846 845 844 843 842 842 841 841 841 840 840 839 838 837 836 836 835 835
811 814 816 818 820 821 822 824 826 828 830 831 833 834 836 837 839 840 842 843 843 843 843 844 845 845 846 846 847 847 846 846 846 846 846 846 846 846 847 847 847 848 849 849 848 848 848 848 848 848 848 849 849 849 849 849 849 848 848 847 847 846 846 846 846 846 846 846 845 844 843 842 842 841 841 841 841 840 839 838 837 837 836 835 834
810 812 814 817 818 820 822 824 826 828 829 831 832 834 836 837 839 840 841 843 843 844 844 844 845 845 845 846 846 846 846 846 846 846 846 846 846 846 847 847 847 848 848 849 849 848 848 848 848 848 849 849 849 849 849 849 849 848 848 847 846 846 846 845 846 846 846 846 845 845 844 843 842 841 841 840 840 840 839 838 837 837 836 835 835
810 811 813 815 817 819 821 824 826 828 829 831 832 834 835 837 838 840 841 842 843 844 844 845 845 845 845 845 846 846 846 846 846 846 846 846 847 847 847 847 847 848 848 849 849 849 849 849 849 849 849 849 849 848 849 849 848 848 847 847 846 846 845 845 845 845 845 845 845 845 844 843 842 841 841 840 840 839 839 838 837 837 836 835 835
809 811 812 813 816 818 820 823 825 827 829 831 832 833 835 836 838 839 841 842 843 843 844 845 845 845 845 845 845 845 846 846 846 847 847 847 847 847 848 847 848 848 848 849 849 849 849 849 849 849 849 849 849 849 849 849 848 848 848 847 846 846 846 846 846 846 845 845 845 845 844 844 843 842 841 841 840 839 839 838 837 836 836 835 834
808 810 811 812 814 817 820 822 824 827 828 830 832 833 834 836 838 839 841 842 842 843 844 845 845 846 846 845 845 845 846 846 846 847 847 847 848 848 848 848 848 849 849 850 850 849 849 849 850 850 850 850 850 849 849 849 849 848 848 847 847 846 847 847 846 846 846 846 846 845 845 845 844 843 843 842 841 840 839 838 837 836 836 835 834
807 809 811 812 813 816 819 821 824 826 828 830 831 832 833 835 837 839 840 841 842 843 844 844 845 846 846 846 845 845 846 846 847 847 847 848 848 849 849 849 849 849 850 850 850 850 850 850 850 850 850 850 850 850 850 849 849 849 848 848 847 847 847 847 847 847 847 847 846 846 846 845 845 845 844 843 842 841 840 839 838 837 836 835 834
806 808 810 811 812 815 817 820 823 825 827 829 830 831 832 834 836 838 839 840 841 842 843 844 844 845 846 846 846 846 846 846 847 847 848 848 849 849 849 849 849 850 850 850 850 850 850 850 850 850 850 850 850 849 850 850 850 849 849 849 848 848 848 848 848 848 848 847 847 846 846 846 846 846 845 845 843 842 841 840 838 837 836 835 834
805 807 809 810 811 814 816 819 822 824 827 828 829 830 832 834 835 837 838 839 840 841 842 843 844 845 845 846 846 846 846 847 847 848 848 849 849 849 849 850 850 850 850 850 850 850 850 849 849 850 850 850 850 849 850 850 850 850 850 850 849 849 849 849 849 848 848 848 848 847 847 847 847 847 846 845 844 843 842 840 839 838 837 836 835
804 806 808 809 810 813 815 818 821 823 825 827 828 830 831 833 835 837 838 839 839 840 841 842 843 844 845 846 846 846 846 847 847 848 849 849 850 850 850 850 850 850 850 850 850 849 849 849 849 849 849 850 850 850 850 850 851 851 851 851 850 850 850 850 850 850 849 849 849 849 849 848 848 848 847 846 845 844 843 841 840 839 838 837 835
804 806 808 808 809 812 815 818 820 821 824 826 828 830 831 833 835 836 837 838 839 840 841 842 842 844 845 845 846 846 846 847 848 849 849 850 850 850 850 851 850 850 850 849 849 849 849 849 849 849 849 849 849 849 850 851 852 852 852 852 852 852 851 851 851 850 850 850 850 850 850 850 849 848 848 847 846 845 843 842 841 840 838 837 836
804 806 807 808 810 812 815 817 819 821 823 826 827 829 831 833 834 835 837 837 838 839 840 841 842 843 844 845 845 846 846 847 848 849 850 850 850 850 850 851 851 850 850 849 849 848 848 849 849 849 849 849 849 849 850 852 853 853 853 853 853 853 853 853 852 852 851 851 851 851 851 851 850 849 848 847 846 845 844 843 841 840 839 838 836
804 805 807 809 811 812 814 817 820 823 825 826 826 828 830 832 834 835 836 837 838 839 840 841 842 843 844 845 845 846 846 847 848 849 850 850 850 850 851 851 851 850 849 849 848 848 848 848 849 849 849 849 849 849 851 852 853 854 854 855 855 855 854 854 853 853 852 852 852 852 852 852 851 850 849 848 847 846 845 843 842 841 840 838 837
803 805 807 809 810 811 813 817 822 825 827 827 828 828 829 831 833 834 835 836 838 839 840 841 842 842 843 844 844 845 846 847 848 849 850 850 850 850 851 850 850 850 849 848 848 848 848 848 849 849 850 849 849 850 851 852 853 854 855 856 856 856 856 855 854 854 854 853 853 853 853 853 852 851 850 849 848 847 845 844 843 841 840 839 837
802 804 807 808 809 809 812 817 821 823 824 824 826 828 829 830 831 833 835 836 838 839 839 841 841 842 842 843 844 845 846 847 848 849 850 850 850 850 850 850 850 849 848 848 848 847 848 848 849 850 850 850 850 850 851 852 852 852 854 855 856 857 857 856 855 855 855 855 854 854 854 853 853 852 852 850 849 847 846 845 843 842 841 839 838
800 802 803 805 807 808 811 815 819 820 821 820 822 826 828 830 831 832 834 836 837 839 840 841 841 842 842 843 844 844 846 847 848 849 849 849 849 850 850 850 849 848 848 848 847 847 848 849 850 851 851 851 851 851 851 851 851 851 852 852 852 854 855 857 857 857 857 856 855 855 855 854 854 853 852 851 850 848 847 846 844 843 841 840 838
798 799 801 803 805 808 810 815 819 819 819 819 822 825 828 830 831 833 834 836 837 839 840 841 842 842 842 843 844 845 846 847 848 848 849 849 849 849 849 849 849 848 848 848 847 848 849 850 851 851 852 852 852 851 851 850 850 851 850 850 850 849 851 856 858 859 859 857 857 856 856 855 854 853 852 851 850 849 848 847 845 844 843 841 840
795 798 801 803 805 808 811 816 818 817 818 820 823 825 828 830 831 833 835 836 837 838 839 841 842 842 843 843 844 845 846 847 848 848 848 849 849 849 849 849 849 848 848 848 848 849 849 851 851 852 852 852 853 853 852 851 850 850 849 849 849 848 851 855 856 859 860 859 858 858 857 856 855 854 853 853 852 851 850 849 847 846 844 842 841
794 798 801 803 805 809 812 815 816 817 820 822 822 824 826 828 830 832 834 836 837 838 838 840 842 843 843 843 844 845 846 847 847 848 848 849 849 850 849 849 849 848 848 848 849 850 851 852 852 853 853 853 853 853 853 853 851 850 850 850 850 850 853 854 854 857 860 860 860 859 857 856 856 855 854 854 853 852 851 850 848 847 845 843 842
795 799 802 804 806 808 810 814 816 818 820 820 821 823 826 828 829 832 834 836 838 838 839 840 842 843 843 843 844 845 846 847 847 848 849 849 850 850 850 850 849 849 849 849 850 851 852 853 853 853 853 853 853 853 853 854 853 853 853 853 853 853 854 855 855 855 857 858 860 859 858 857 856 855 855 855 854 853 852 851 849 848 846 844 842
795 798 802 804 805 807 810 814 816 818 819 820 821 824 826 828 830 832 835 837 838 838 839 840 842 843 843 843 844 845 846 847 848 848 849 850 850 851 851 850 850 850 850 851 851 852 853 854 854 854 854 853 853 853 853 854 854 855 856 855 855 856 856 857 857 857 856 856 858 859 858 857 856 856 856 855 854 853 852 851 850 848 846 844 843
795 798 801 802 804 806 809 812 814 817 818 819 821 823 825 827 829 831 834 837 837 838 839 840 842 844 844 844 844 845 846 847 848 849 849 850 851 851 851 851 851 851 851 852 853 854 855 855 855 855 854 854 854 853 853 854 855 856 857 857 857 858 859 859 860 859 858 856 857 858 858 857 856 856 856 855 854 853 852 851 850 848 846 844 843
795 798 800 801 803 805 807 810 813 815 817 818 819 821 823 825 827 830 833 836 837 837 839 841 843 844 845 845 845 846 847 847 848 849 850 850 852 852 852 852 852 853 853 854 855 855 856 856 856 856 855 855 855 854 854 855 856 857 857 858 858 859 860 861 861 860 859 858 857 858 857 857 856 856 856 855 854 853 852 851 849 848 846 844 843
793 796 798 800 801 803 806 809 811 813 814 815 817 820 822 824 826 829 833 835 836 837 838 840 842 844 845 845 845 846 847 848 848 849 850 851 852 853 853 854 854 854 855 855 856 857 857 857 857 857 857 856 856 856 856 857 857 858 858 859 860 861 861 861 862 861 860 860 859 858 858 858 857 857 856 855 854 853 852 851 849 848 846 844 842
Wind_Speed
20 23 22 24 24 21 21 21 19 17 17 17 18 18 18 17 16 16 15 15 15 16 16 17 17 18 18 18 17 16 16 16 15 16 15 15 15 13 13 12 12 12 11 11 10 9 9 9 11 12 12 12 12 12 13 13 11 11 13 13 12 10 10 11 10 11 11 9 9 8 7 9 8 6 7 8 9 8 7 7 8 8 7 7 7
22 24 22 23 23 21 21 20 18 17 16 16 16 17 18 17 17 16 15 16 15 16 16 17 18 18 17 17 16 16 15 15 15 15 15 14 14 12 11 11 12 12 11 11 10 9 9 9 11 13 13 13 12 12 13 12 11 12 14 12 10 9 10 9 9 10 9 8 7 7 6 8 8 8 7 7 7 6 5 5 7 8 5 7 7
22 23 20 22 23 21 21 20 18 17 16 16 16 17 18 18 17 16 16 16 16 16 17 17 17 17 17 16 16 15 15 14 14 14 14 13 12 11 10 11 12 12 11 10 10 9 8 9 12 13 13 13 12 12 13 12 12 13 13 11 10 10 9 8 8 8 7 6 5 6 6 7 7 7 6 6 6 5 6 6 7 8 5 5 5
20 20 20 22 22 21 21 20 18 17 16 16 16 17 18 18 17 16 16 16 16 16 16 17 17 17 16 16 15 15 14 14 13 13 13 12 11 11 11 11 12 12 11 10 10 9 8 10 12 13 13 13 12 12 13 13 13 13 12 12 11 11 11 10 9 8 7 5 5 6 6 6 6 6 6 5 6 6 7 7 7 6 6 6 5
19 19 20 21 20 20 20 20 19 17 16 16 17 18 18 18 18 17 16 16 15 16 16 16 16 16 16 15 15 15 14 13 12 12 12 11 11 11 11 11 12 11 10 10 9 9 10 12 13 14 14 13 13 12 12 12 13 13 12 12 11 11 11 11 11 10 8 7 7 6 5 5 5 6 6 4 7 6 6 7 6 4 5 5 6
20 19 20 20 19 20 20 20 19 17 16 16 17 18 18 18 18 17 17 16 16 16 16 16 15 15 15 15 14 14 13 12 11 11 11 11 11 10 9 9 11 10 10 10 10 11 11 13 14 14 14 13 13 12 12 11 11 10 10 9 9 9 8 9 10 9 9 9 8 7 5 5 4 4 4 4 7 6 4 4 3 3 4 4 6
21 20 20 19 18 20 21 20 18 18 17 17 18 17 18 18 18 17 17 16 16 15 15 15 15 14 14 14 14 13 13 12 12 11 11 10 10 10 9 8 9 9 9 9 11 12 12 13 14 14 13 13 12 12 11 10 9 9 8 8 7 6 5 6 6 6 7 7 5 5 4 4 4 3 4 4 6 7 4 4 4 3 4 5 6
19 19 19 18 18 21 21 20 18 18 17 18 18 17 17 17 18 17 17 17 16 15 15 15 14 14 14 14 13 13 12 12 12 11 10 9 9 8 7 7 7 7 8 8 10 12 12 13 14 14 13 12 12 11 11 9 9 9 8 7 6 5 5 5 4 4 5 4 3 3 3 3 3 3 5 5 6 7 5 6 6 6 5 5 6
18 18 19 18 18 22 21 20 19 18 18 18 18 17 17 17 18 17 17 17 16 15 15 15 14 14 13 13 12 12 11 11 11 10 8 7 7 6 6 7 8 8 9 9 10 11 13 13 13 13 13 12 11 10 9 9 8 8 7 7 7 6 6 5 5 4 3 2 2 3 3 3 3 2 5 7 6 7 6 5 5 6 6 5 6
17 17 18 18 18 22 21 20 19 18 18 19 18 17 17 18 18 17 17 17 16 16 15 15 14 13 13 12 12 11 11 10 9 8 7 6 5 5 6 8 8 9 10 9 10 12 12 13 13 12 12 11 10 9 8 8 7 7 7 7 7 7 7 6 6 5 3 2 2 3 4 5 3 2 5 7 7 7 7 6 5 6 7 7 7
17 16 17 17 18 21 21 20 19 18 19 18 18 17 17 17 17 17 17 16 16 16 15 14 14 13 13 12 11 10 9 8 8 7 7 6 5 5 6 7 8 9 10 10 10 11 11 12 12 11 11 10 9 8 7 7 7 7 7 8 8 8 8 6 5 4 4 3 3 3 5 6 4 2 5 7 8 8 8 7 7 7 8 8 8
17 17 17 16 18 21 20 20 18 18 18 18 18 17 17 17 17 17 16 16 16 15 14 14 14 13 12 11 10 9 8 7 7 6 5 5 4 5 6 7 8 9 10 11 10 10 11 12 11 10 10 9 8 7 6 6 6 7 8 8 9 9 8 6 5 3 4 3 3 5 4 4 3 4 5 6 8 9 8 8 8 8 8 8 8
18 17 17 16 18 20 20 19 18 18 18 18 18 17 17 17 16 16 16 16 15 15 14 13 13 13 12 11 10 8 7 7 7 6 5 4 5 5 7 8 8 9 10 11 10 10 10 10 10 10 9 8 7 6 5 5 6 7 8 8 9 10 9 8 6 3 2 2 3 5 4 4 3 5 6 5 8 8 8 8 8 8 8 8 8
18 18 17 16 17 19 20 18 18 18 18 18 17 17 17 17 16 16 16 16 15 15 14 14 14 13 12 11 10 9 8 8 7 6 5 5 5 6 7 8 9 9 10 11 11 10 10 9 9 8 8 7 6 5 4 4 5 7 8 9 9 10 10 10 8 5 2 2 3 4 4 5 5 6 7 5 7 8 8 7 7 8 8 8 8
18 19 18 16 17 19 19 18 18 18 18 18 17 17 17 17 16 16 16 16 15 15 14 14 13 12 12 11 10 9 9 9 8 7 6 5 5 6 7 8 9 9 10 11 11 11 10 9 8 7 7 6 5 4 3 3 4 5 7 7 8 9 10 11 10 7 4 2 2 3 3 5 6 7 8 7 6 7 8 7 7 8 8 8 8
17 18 17 16 18 18 19 18 18 19 18 17 17 17 16 16 15 16 15 15 14 14 14 13 13 12 11 11 11 10 10 9 8 7 6 6 6 7 7 8 8 8 9 10 11 11 10 9 8 7 6 5 4 3 2 2 3 4 4 5 7 8 8 10 11 10 7 3 3 4 4 5 7 7 7 8 7 7 7 7 8 8 8 8 8
16 17 16 17 19 18 18 18 18 18 17 17 16 16 15 15 14 14 14 14 14 13 13 13 12 11 11 11 11 11 10 10 9 9 9 8 7 7 8 8 7 7 8 9 9 10 10 9 8 7 6 5 4 3 2 1 1 2 2 2 5 7 7 8 10 10 10 7 6 5 5 6 7 8 8 8 8 8 8 8 8 9 9 9 9
15 16 17 18 19 17 17 18 18 17 17 17 16 16 15 14 14 13 13 13 13 12 13 13 12 11 11 11 11 11 10 10 11 11 11 11 10 9 8 7 6 6 6 7 8 8 9 8 8 7 6 5 4 3 2 1 1 1 1 2 5 6 6 7 8 8 9 9 8 7 6 7 8 8 9 9 9 9 9 9 9 9 10 10 10
15 16 17 17 18 17 17 18 18 17 17 17 16 15 14 14 13 13 13 12 12 11 12 12 11 11 11 12 12 11 11 11 11 12 13 13 12 11 9 8 6 5 5 5 6 7 8 8 7 6 6 5 4 3 3 2 1 1 1 3 5 7 6 6 6 7 8 8 8 8 7 7 7 8 9 10 10 11 11 10 10 11 11 11 11
14 17 17 17 18 17 18 19 18 18 17 17 16 15 15 14 13 12 12 11 11 11 11 11 11 11 12 12 12 11 11 11 11 11 11 11 12 11 9 8 7 5 4 4 4 5 6 6 6 6 5 4 4 4 4 3 2 1 2 3 5 6 6 6 6 6 7 7 8 8 8 8 7 8 9 10 11 12 12 13 12 13 12 11 11
15 17 17 18 19 19 19 18 18 18 18 18 17 15 15 15 13 12 12 11 11 11 11 11 11 11 12 13 13 12 12 11 11 10 10 9 10 10 9 9 8 7 5 4 3 3 4 5 5 5 4 3 3 3 3 3 3 1 2 3 4 4 4 5 5 6 6 7 7 8 8 8 8 9 9 10 11 12 14 14 13 14 13 12 11
17 17 17 18 19 19 19 18 18 19 19 18 17 16 16 15 13 12 11 11 10 10 10 10 9 9 11 12 11 12 13 11 10 9 9 7 7 8 8 9 8 8 6 5 4 3 3 3 3 3 3 3 3 3 3 2 1 0 2 3 4 4 4 5 5 6 6 6 7 8 8 8 9 9 9 9 10 12 14 14 13 15 14 12 11
18 18 17 18 18 19 19 17 17 18 18 17 16 16 16 15 13 12 11 10 10 9 10 10 9 8 9 10 10 11 12 10 8 7 7 7 6 6 6 6 6 7 6 6 6 6 5 4 3 4 4 4 4 4 4 3 2 2 3 4 5 5 5 5 6 6 6 6 8 8 8 8 8 8 8 9 10 12 14 14 13 14 14 14 11
18 18 17 17 17 18 18 17 17 17 17 16 15 15 14 13 12 12 11 10 10 9 10 10 9 8 8 8 9 9 8 7 7 6 6 5 6 5 5 5 5 5 5 5 6 7 7 7 6 6 5 4 4 4 4 3 3 4 4 5 5 5 5 5 6 5 6 7 7 7 6 6 6 7 7 8 9 10 12 13 13 13 14 15 13
17 17 17 17 18 17 17 17 17 17 16 15 15 14 13 12 11 11 10 9 11 11 10 9 8 8 8 7 7 7 7 6 6 6 5 5 5 4 4 4 4 4 4 4 5 6 8 8 7 6 5 4 4 4 4 3 3 4 5 5 5 5 5 5 5 5 6 6 6 5 4 4 4 4 4 5 6 9 11 11 13 14 14 15 14
17 16 17 18 18 17 16 16 16 16 15 14 15 14 13 13 11 10 9 9 12 12 10 8 7 7 7 6 6 6 7 7 6 6 5 5 5 4 4 4 4 4 4 4 4 5 6 7 6 6 5 4 4 4 3 3 3 4 4 5 5 5 5 5 5 5 5 5 5 5 5 5 5 4 3 4 6 8 10 11 11 11 11 11 11
17 16 16 18 19 17 16 16 15 16 16 15 14 13 13 12 11 10 9 9 12 12 9 7 5 6 6 6 5 5 6 6 5 5 5 5 4 4 4 4 3 3 4 4 4 4 5 6 5 5 4 4 4 4 3 3 3 4 4 4 4 4 5 5 5 5 4 5 5 6 6 6 6 5 5 6 7 9 11 12 10 10 10 9 8
16 16 15 17 18 17 16 16 15 15 15 15 14 12 12 11 10 9 9 10 10 9 8 6 5 5 5 5 5 5 5 5 4 4 4 4 4 4 4 4 4 3 3 4 4 4 4 5 5 5 4 4 4 4 4 3 3 3 4 4 4 4 5 5 5 4 4 5 7 7 6 6 6 6 7 9 10 11 12 12 11 11 11 10 10
17 17 16 16 18 17 15 16 15 15 15 15 13 12 12 11 10 9 9 9 8 7 7 6 5 4 4 4 4 4 5 4 4 3 4 4 3 4 3 4 3 3 3 3 4 4 4 4 4 4 4 4 4 4 4 4 3 4 5 5 5 5 5 5 5 6 6 6 9 9 7 7 7 8 9 10 11 11 11 11 11 12 11 11 11
17 17 17 16 18 17 16 16 15 15 15 14 13 12 11 11 10 9 9 8 7 7 7 5 4 4 3 3 3 4 4 3 3 2 2 3 3 3 3 3 3 3 3 2 3 4 4 4 4 4 4 4 4 4 4 4 5 5 6 6 6 6 6 6 7 9 9 9 11 12 10 9 9 8 9 8 9 9 8 8 9 11 12 13 12
16 16 17 16 17 17 16 16 16 16 15 13 13 12 10 11 11 9 8 8 8 7 6 4 3 3 3 3 3 3 3 2 2 2 2 2 3 3 3 3 3 3 3 2 3 3 3 4 4 4 4 4 4 4 4 5 6 7 7 7 8 8 9 9 10 11 12 12 13 13 12 12 12 11 10 9 9 8 7 7 8 9 10 13 13
15 16 16 16 17 17 17 17 17 16 16 14 13 12 11 13 13 10 9 9 8 7 6 4 3 3 3 2 2 2 2 2 2 2 2 2 3 3 3 4 3 3 3 3 3 3 3 3 3 4 4 4 4 4 5 6 8 9 9 10 10 11 12 12 13 14 15 15 15 15 15 14 14 15 14 12 11 10 9 9 9 9 9 11 12
15 15 15 16 18 18 18 18 18 17 16 14 13 13 13 13 12 10 9 8 7 7 7 5 3 3 2 1 2 2 2 2 2 3 3 3 3 3 3 4 4 3 3 3 3 3 3 3 3 3 3 4 5 6 7 8 10 10 11 12 13 14 15 15 16 16 17 17 17 17 17 15 15 15 15 14 13 13 11 10 10 10 9 10 11
14 15 16 16 17 17 17 17 19 19 16 14 13 13 13 12 12 10 9 8 8 7 7 6 4 3 2 1 1 2 3 3 3 4 4 4 4 4 4 4 4 3 3 3 3 3 3 3 4 4 4 4 6 6 8 9 10 12 14 15 16 17 17 17 18 18 18 18 17 17 17 16 15 15 15 14 14 14 13 12 11 10 10 10 11
15 16 16 16 17 17 17 17 19 19 16 14 13 14 14 12 12 11 10 9 9 8 7 6 5 4 2 2 2 3 4 4 4 5 5 5 5 5 5 4 4 3 2 3 3 3 4 4 4 4 4 5 6 6 7 10 11 14 16 17 18 18 17 18 18 18 18 17 17 16 16 15 15 14 14 13 14 14 13 13 12 11 10 11 12
15 15 16 16 17 18 18 18 18 17 16 14 14 15 14 12 12 11 10 10 9 8 7 6 6 5 4 4 4 4 5 5 5 5 5 5 5 5 4 4 3 2 2 3 3 4 5 5 5 5 5 6 6 5 7 10 13 16 17 18 18 18 18 18 18 18 17 17 16 16 16 15 15 13 13 14 14 15 14 13 13 12 12 12 12
15 15 16 17 18 18 19 18 17 16 16 16 16 15 13 12 12 11 10 9 8 8 8 8 7 7 6 6 5 5 5 5 5 5 5 5 5 4 4 3 2 2 3 3 4 5 6 6 6 6 6 6 5 5 8 12 16 18 19 19 20 19 19 19 18 18 17 17 16 16 16 16 15 14 14 15 15 16 15 14 14 13 13 13 13
14 15 16 17 17 18 19 18 18 18 15 13 14 13 12 12 11 10 9 9 9 9 9 9 9 9 8 7 6 6 6 5 4 4 4 4 4 4 4 3 2 2 3 4 6 6 6 6 6 7 7 6 4 6 10 14 17 19 21 21 21 21 21 20 19 18 17 17 17 17 16 16 16 16 16 16 17 18 18 16 15 15 15 14 13
14 15 16 16 15 17 18 19 19 17 14 14 14 13 13 12 11 10 11 11 11 11 10 10 10 10 8 8 7 7 7 5 4 4 3 3 3 3 2 2 2 3 4 5 6 6 6 6 5 6 7 6 5 8 13 16 18 21 23 24 24 24 23 21 21 20 18 18 17 16 16 16 17 17 18 18 18 20 21 20 18 17 16 15 14
16 16 16 15 15 16 18 19 18 14 14 16 16 15 14 13 14 14 14 14 13 12 12 11 11 11 10 9 8 8 7 6 6 4 2 1 2 1 2 3 4 5 5 4 5 5 5 4 5 6 7 7 7 11 15 16 18 20 21 22 24 25 26 24 23 21 20 18 17 15 15 15 16 18 19 19 20 22 23 22 22 20 19 17 16
18 17 15 14 16 17 18 19 18 14 14 15 13 15 16 15 16 16 17 17 15 14 14 13 12 12 11 10 10 8 6 7 6 3 1 1 1 2 4 5 5 5 4 4 4 4 3 4 5 6 7 9 10 11 15 15 14 14 14 14 16 19 23 25 25 24 21 19 17 16 16 16 16 16 17 18 20 22 23 23 23 22 22 20 19
17 18 17 13 15 17 19 20 21 19 18 17 16 16 16 17 18 18 19 19 17 16 16 15 14 13 13 12 11 9 8 7 6 4 3 2 3 4 4 4 4 3 4 4 4 3 3 4 6 8 9 12 13 9 14 12 7 8 9 8 8 9 14 20 24 24 22 19 18 17 17 17 17 16 15 16 18 21 23 24 24 24 24 23 22
17 21 23 19 17 17 19 23 23 22 21 21 20 16 15 16 18 20 20 20 19 18 17 16 15 14 14 13 11 10 9 7 6 4 3 3 2 2 2 2 2 3 4 3 3 3 4 4 5 8 11 13 16 12 9 9 4 5 7 5 4 4 6 10 15 18 19 19 19 18 16 16 17 16 15 15 16 18 20 23 24 24 24 24 24
19 21 23 22 19 17 22 24 23 23 23 21 18 15 14 15 18 21 21 20 20 19 17 17 16 15 15 13 11 10 8 6 5 4 3 2 1 1 0 1 2 3 4 4 5 5 5 5 5 7 9 11 14 17 13 8 5 4 3 2 2 2 2 5 7 10 13 16 17 17 15 14 15 15 15 15 16 15 16 20 21 22 23 22 22
20 19 20 20 17 16 22 23 22 24 22 17 16 17 19 19 20 21 22 22 21 21 19 18 17 15 14 13 11 9 6 5 4 3 3 2 2 1 1 2 3 4 5 7 8 7 7 6 6 8 10 11 12 15 19 18 13 7 4 3 1 1 2 3 5 6 8 12 14 14 14 14 13 14 15 16 16 15 15 18 20 21 23 22 21
17 18 18 17 15 16 21 23 23 20 16 16 19 22 23 24 25 25 23 22 20 20 20 18 17 15 14 12 10 7 5 4 4 4 4 3 3 3 3 4 6 7 8 9 9 9 9 9 9 10 11 13 13 12 17 21 22 21 17 13 8 5 3 1 2 3 5 8 11 12 14 14 13 13 15 16 17 17 16 15 17 19 20 20 20
16 18 15 14 16 18 21 22 19 17 17 20 24 25 24 25 27 26 22 20 19 19 20 19 16 14 13 11 9 8 6 5 6 6 5 5 5 5 6 7 8 10 10 11 12 12 11 11 11 11 12 14 13 11 11 14 18 22 24 23 20 15 9 4 2 1 3 4 8 11 11 13 13 12 12 13 14 15 14 13 14 15 16 17 18
17 19 17 16 17 18 17 17 16 18 21 24 24 23 22 23 25 23 20 20 21 20 20 18 15 13 12 11 10 9 8 7 8 8 7 7 6 7 8 9 10 12 12 13 14 14 14 14 14 15 15 17 17 15 13 12 12 15 18 21 22 20 18 13 8 4 1 2 4 7 8 10 12 12 10 9 11 13 14 13 13 14 15 16 17
18 18 19 18 16 15 17 16 15 17 20 22 23 21 21 23 24 23 22 22 22 22 20 17 15 14 12 11 10 10 10 10 9 9 8 8 8 9 9 10 12 13 14 14 15 15 16 16 17 18 20 21 22 23 22 19 15 13 12 12 13 14 14 13 10 7 5 3 3 5 6 6 6 9 9 7 8 11 13 14 13 14 15 16 17
19 18 17 18 16 16 19 17 15 16 18 21 24 21 22 24 24 24 24 23 23 23 21 19 17 15 13 13 12 12 12 12 11 10 9 9 9 10 10 11 13 14 15 15 16 17 17 18 19 19 21 23 24 25 26 25 22 20 16 12 10 9 8 9 9 8 7 6 5 5 8 7 4 6 8 7 6 6 10 13 12 14 15 16 17
19 18 16 17 19 19 19 15 14 17 19 21 23 19 20 23 23 23 24 24 25 25 23 21 18 16 14 14 13 13 13 13 12 11 11 10 11 11 11 13 14 15 15 16 17 18 18 19 20 20 22 24 25 25 26 26 25 25 22 18 14 12 10 9 9 9 9 7 6 5 8 8 4 5 8 9 7 5 8 12 13 14 15 17 18
Wind_Direction
167 167 159 159 162 167 171 168 159 154 152 149 152 151 147 140 132 133 136 135 132 130 127 127 125 124 123 122 120 119 119 118 117 114 111 109 107 103 99 94 89 85 81 80 79 82 88 104 111 107 104 101 100 101 106 105 102 105 109 101 99 101 94 93 92 94 89 88 88 86 63 50 72 79 83 89 77 70 71 79 79 66 58 59 57
161 163 156 159 162 166 170 166 158 154 152 147 149 148 145 138 132 132 134 133 132 131 127 126 126 125 123 121 121 120 120 119 118 116 112 107 105 101 98 92 87 85 81 80 78 79 79 94 108 107 104 103 103 105 107 106 104 109 113 106 101 102 102 102 99 105 105 100 96 92 72 59 68 65 73 84 77 69 76 84 78 70 58 61 53
153 156 153 160 162 166 169 164 158 155 151 145 146 145 142 136 133 132 133 135 133 131 127 126 125 124 124 122 121 121 120 119 118 115 110 105 104 99 95 87 81 81 79 79 79 80 76 89 106 108 106 104 105 106 107 106 108 112 113 109 103 102 107 110 102 109 111 110 105 91 79 72 71 62 64 70 69 63 73 73 66 68 57 64 52
149 152 153 158 161 165 166 164 159 154 151 146 146 144 140 135 134 134 136 136 133 131 128 127 125 124 123 122 120 119 118 117 116 113 110 106 104 96 92 84 78 77 78 80 76 73 73 92 107 109 106 105 105 105 108 107 112 113 109 107 105 101 98 96 93 98 100 103 99 89 83 80 75 66 73 64 55 58 64 66 63 55 40 38 19
146 151 152 155 161 166 165 165 159 153 151 147 147 142 139 136 137 138 138 135 133 132 128 127 125 125 123 122 121 119 118 116 115 112 111 107 99 90 88 82 78 79 79 78 72 75 79 95 108 109 108 107 106 105 106 105 108 110 109 107 99 93 86 79 77 79 83 86 84 85 89 93 88 66 74 54 41 58 55 57 65 52 39 23 7
146 150 151 154 160 166 168 167 157 152 152 148 145 140 139 138 140 140 137 136 133 131 127 127 126 126 124 123 121 121 120 118 118 112 109 102 92 86 87 80 80 85 82 80 78 83 87 96 105 108 111 110 108 107 107 104 102 102 104 102 89 84 79 67 64 64 70 74 76 82 86 86 94 68 57 39 27 54 65 48 49 35 37 17 20
147 151 153 155 159 167 170 166 156 153 151 145 142 140 142 141 142 139 137 135 132 131 130 130 128 128 125 124 123 123 120 118 118 111 107 101 97 95 89 83 91 93 85 88 84 85 92 99 105 109 112 111 110 108 107 103 99 97 92 90 78 71 63 55 54 56 62 65 69 71 77 70 85 70 37 35 16 37 50 22 20 27 33 10 32
149 152 154 156 159 168 170 163 155 153 148 142 142 144 145 142 141 138 137 136 134 135 133 132 130 130 127 125 124 121 119 116 114 109 108 106 106 100 89 86 97 94 83 94 95 94 101 105 108 111 112 110 111 108 106 100 94 89 79 70 53 40 30 36 46 52 56 53 60 55 63 54 65 59 26 34 18 20 12 5 14 22 36 7 27
151 153 155 156 160 169 167 160 155 151 146 143 146 148 146 143 142 141 140 138 136 136 134 133 132 130 126 125 122 119 116 113 111 111 112 111 106 93 85 87 89 84 77 88 106 109 110 114 115 114 114 113 113 110 106 95 86 77 63 48 32 25 25 32 42 49 54 39 52 50 59 54 51 41 22 29 15 9 6 11 14 9 23 11 18
150 153 156 155 161 169 165 158 154 149 146 147 150 149 146 145 145 144 142 140 139 137 136 135 132 130 127 124 122 119 116 113 114 112 110 105 99 91 85 90 91 87 83 88 109 116 115 122 122 118 119 121 119 113 107 95 83 70 55 43 32 29 33 40 47 53 65 63 57 52 55 57 56 32 23 27 13 6 12 21 24 10 11 7 6
151 154 156 156 163 168 163 156 153 149 147 151 152 151 149 148 147 144 141 141 140 138 137 136 132 129 127 125 123 122 118 116 116 112 109 105 101 96 89 95 96 91 90 92 109 121 123 129 129 126 126 126 124 118 110 97 82 69 57 46 37 35 40 47 53 56 64 69 62 52 45 46 43 17 24 23 14 10 12 18 17 8 4 1 359
153 155 156 158 166 166 158 153 151 149 150 154 154 154 152 150 147 142 141 141 140 138 136 135 132 129 127 126 123 120 119 118 119 119 119 118 110 106 104 102 99 94 92 92 106 124 129 132 132 130 131 129 127 122 110 95 79 69 61 49 43 43 45 50 57 59 64 77 57 51 41 35 20 9 24 14 9 10 9 12 7 3 1 359 357
156 156 157 158 165 163 154 152 152 151 153 157 156 156 153 150 147 143 144 143 141 138 136 135 132 130 129 127 125 123 121 119 120 125 125 124 121 115 113 110 107 102 96 94 100 114 126 133 133 134 134 133 130 121 107 92 78 69 63 52 51 51 50 51 57 65 65 73 44 43 39 28 12 7 19 9 6 9 7 8 2 0 0 359 357
156 155 155 156 163 160 153 151 153 154 157 160 159 157 154 152 150 148 148 145 143 140 138 136 133 133 133 130 125 120 113 109 106 109 106 110 118 118 119 118 116 110 104 100 100 109 123 134 138 139 137 134 133 124 110 91 77 70 68 57 52 54 54 52 53 65 65 49 28 27 21 13 7 3 10 10 6 6 6 4 358 357 356 356 356
155 153 155 157 159 158 156 153 154 158 161 163 159 158 156 154 154 152 151 148 145 141 138 135 134 133 130 124 115 109 103 100 97 94 92 99 112 120 126 126 122 117 110 104 105 113 126 138 144 145 142 139 140 133 118 97 79 71 74 65 53 49 52 53 50 54 54 29 357 358 352 348 352 356 359 1 359 0 2 357 353 352 351 350 349
154 154 157 158 156 156 158 158 159 162 164 163 159 160 159 158 157 155 153 148 145 139 137 135 134 130 124 118 112 109 105 102 97 90 88 94 110 121 129 130 126 122 115 107 106 114 128 141 149 153 152 151 153 149 136 110 86 71 75 68 53 43 46 50 48 48 46 30 350 341 329 327 341 347 346 346 344 345 350 348 345 343 340 341 341
157 158 158 158 156 155 159 162 163 164 165 162 161 162 161 161 159 156 152 146 142 139 137 134 132 128 123 120 117 115 112 108 101 92 87 91 102 115 125 129 129 127 121 114 107 111 124 140 153 161 165 165 168 167 165 142 101 69 60 44 36 37 40 43 44 44 42 34 18 355 329 321 332 335 333 332 330 328 333 337 336 333 330 330 334
161 162 159 158 158 157 161 163 163 165 165 164 164 164 164 164 160 154 148 143 141 139 136 133 131 128 124 123 122 121 117 111 103 95 87 86 92 102 116 121 124 129 126 121 114 111 116 131 148 162 171 176 179 185 195 195 168 44 15 337 6 29 38 40 41 36 34 29 20 3 342 329 328 326 324 320 318 315 316 320 322 322 321 323 329
163 162 160 159 161 161 163 164 164 165 166 167 167 166 167 165 161 154 148 145 142 136 133 132 131 127 122 122 123 121 117 111 104 95 88 85 86 91 103 114 117 122 126 125 120 115 113 122 137 154 168 177 184 194 205 205 201 243 293 323 355 17 29 33 33 25 23 18 13 5 352 341 332 320 315 313 309 306 305 307 309 313 314 318 324
165 163 163 163 165 166 165 165 165 166 167 168 166 167 169 164 160 154 148 146 141 135 134 134 131 126 120 118 118 117 113 109 103 95 89 86 86 87 91 98 103 104 111 119 119 118 114 115 122 136 152 167 182 193 203 205 203 228 281 320 351 8 15 19 17 16 14 7 9 7 355 347 336 319 309 305 303 302 302 301 302 305 307 311 319
168 166 168 169 169 169 166 165 167 168 169 168 166 167 168 163 159 153 150 147 141 139 138 135 131 126 121 115 113 113 111 107 100 93 90 86 85 85 82 82 83 83 85 94 111 121 117 116 117 118 125 139 157 173 188 198 202 227 302 327 346 355 358 4 2 6 6 358 3 359 350 347 338 325 312 303 301 300 299 299 301 302 300 302 310
170 169 172 173 172 170 167 167 169 170 170 168 166 168 167 163 159 155 154 149 143 144 140 135 130 124 122 119 115 113 112 108 99 91 89 86 82 78 77 77 76 75 73 75 86 103 116 122 119 108 99 102 110 119 129 142 159 285 327 330 334 332 337 346 348 355 358 354 357 350 346 348 344 338 326 312 305 302 302 301 298 297 293 292 298
171 171 173 175 174 170 168 170 170 170 171 168 167 169 166 162 160 159 157 151 146 145 138 134 130 125 125 123 120 117 113 108 100 96 93 87 79 70 72 75 75 73 68 70 77 86 94 103 107 101 93 88 89 93 94 91 69 26 0 349 344 340 340 343 345 350 352 357 2 357 354 355 350 345 339 328 318 312 310 303 295 295 294 294 296
171 170 172 175 174 171 170 170 169 170 172 169 167 169 167 163 164 164 159 153 149 145 140 137 132 126 127 126 123 119 113 106 100 100 96 87 75 66 65 67 75 75 71 72 74 79 83 87 93 93 90 82 79 82 80 71 55 34 20 12 9 2 357 357 359 5 7 15 17 8 7 5 357 352 349 342 327 312 303 297 297 301 300 301 302
167 168 171 175 175 174 171 168 169 172 174 171 169 170 169 167 168 167 160 154 151 148 146 142 134 127 125 126 122 114 109 98 93 96 93 87 75 68 65 59 71 80 86 85 76 79 81 83 86 87 85 74 68 70 67 55 36 25 14 10 9 5 5 5 7 16 23 29 22 3 0 354 349 349 339 328 311 301 302 304 306 306 303 303 303
167 168 172 177 176 173 172 169 170 175 177 175 173 172 171 171 172 169 161 156 153 151 150 145 135 126 126 125 116 107 100 88 83 84 84 84 73 68 74 68 69 82 100 99 88 85 85 87 87 87 80 67 59 51 46 36 29 22 16 10 6 2 5 7 6 13 25 27 5 337 337 332 328 328 319 319 311 314 326 330 325 318 317 316 308
168 170 173 178 178 174 174 173 172 176 179 177 175 174 174 175 174 169 166 161 156 154 151 146 136 128 129 121 110 100 90 83 76 72 69 68 66 65 69 73 69 76 99 104 97 90 87 88 84 82 77 69 63 56 51 35 31 33 31 26 17 9 6 10 6 7 21 26 8 343 334 329 330 337 342 350 348 347 352 354 351 347 346 343 334
166 171 174 180 181 177 178 177 175 177 179 178 176 174 176 177 175 171 171 166 161 160 154 149 141 133 130 115 105 96 90 87 74 65 54 50 60 61 61 76 79 79 91 97 94 84 78 79 79 83 83 79 75 70 67 51 39 43 44 35 21 13 8 14 12 18 36 44 41 22 1 358 358 8 20 23 18 11 9 6 4 5 5 359 357
168 171 175 181 182 180 180 180 179 180 180 180 177 176 177 176 175 174 173 170 168 167 160 154 150 139 129 111 102 95 94 87 72 66 50 48 60 60 71 88 90 87 82 78 81 75 71 75 81 87 86 84 81 76 72 63 52 47 46 36 24 22 24 33 45 55 60 68 67 57 44 40 34 37 46 46 39 32 28 22 20 22 25 22 13
172 172 174 178 180 181 182 183 183 182 182 180 178 178 178 176 177 177 174 173 175 175 167 162 160 150 131 111 103 96 94 84 71 77 57 55 72 81 97 93 82 82 74 68 75 72 70 73 76 78 78 78 78 78 73 66 55 44 42 38 38 46 56 69 78 81 82 88 84 74 66 60 54 51 55 63 65 62 56 47 42 38 41 40 30
175 174 175 176 178 181 182 185 186 184 182 180 179 179 177 177 180 180 175 176 178 179 176 173 168 151 130 112 109 99 97 98 92 100 82 80 103 108 96 80 73 78 80 79 79 75 68 64 63 64 65 69 72 74 72 66 57 50 50 54 63 71 77 83 87 91 91 93 93 85 75 64 64 68 68 76 84 85 74 60 56 52 54 52 41
179 179 177 175 176 180 182 186 187 185 184 182 180 178 177 179 183 183 180 181 180 180 182 187 181 154 135 112 111 106 109 131 130 111 98 97 112 112 94 85 84 85 79 72 70 66 61 55 54 53 54 61 64 64 63 63 64 65 68 74 80 85 87 89 91 93 93 92 93 90 82 72 70 75 76 77 79 78 72 62 57 60 66 63 50
181 182 179 175 176 179 182 187 189 188 186 185 181 177 177 181 184 184 184 186 188 191 196 202 202 173 149 119 109 124 147 163 147 117 103 102 110 115 110 103 96 88 76 65 59 58 65 65 61 57 54 57 59 59 60 63 68 75 82 86 90 92 92 92 91 91 91 90 88 86 83 79 75 73 72 73 72 69 66 63 58 57 59 59 53
179 180 181 177 175 177 182 188 192 192 190 187 180 176 178 180 185 189 192 195 199 203 206 210 209 189 176 167 133 157 170 165 146 123 107 105 111 117 118 113 99 84 70 56 46 52 62 62 59 54 44 46 51 53 61 69 78 86 90 93 95 95 93 91 89 86 85 84 84 82 78 77 76 72 65 62 64 63 60 58 55 52 50 50 51
180 181 183 178 175 179 184 188 191 192 191 187 181 180 181 182 190 195 196 202 209 211 213 211 199 188 195 188 162 164 163 149 140 127 112 112 122 127 121 110 93 70 49 40 34 38 40 36 41 41 31 34 42 49 67 81 91 97 97 96 95 92 90 87 85 83 81 80 78 77 74 73 71 70 64 54 52 52 50 49 46 43 41 41 43
185 182 182 179 178 182 186 188 189 189 188 187 184 185 186 186 192 197 203 208 209 206 200 190 182 187 191 173 161 156 149 140 135 122 111 121 136 138 120 100 84 56 28 28 24 22 24 19 19 23 26 32 42 59 82 95 101 103 99 96 92 89 85 83 81 80 78 77 76 74 72 70 66 64 62 52 45 42 40 38 34 31 28 27 29
188 184 184 181 179 182 186 186 185 186 187 186 185 187 187 188 192 198 204 200 190 181 172 170 174 183 180 163 151 145 141 132 126 120 118 129 137 134 120 104 87 44 13 9 9 12 14 10 9 10 17 26 45 82 100 105 106 103 98 93 88 84 81 79 79 79 77 77 76 74 70 68 63 58 55 49 42 38 36 33 29 25 22 20 19
189 187 188 184 179 180 183 182 185 187 182 175 176 180 181 185 192 195 188 173 166 163 161 167 172 173 168 154 144 141 134 117 116 129 129 128 124 122 116 99 65 20 3 0 0 5 5 4 8 10 15 25 51 105 116 113 109 103 95 90 85 81 78 77 77 77 76 76 74 72 68 63 60 54 50 46 41 39 37 34 30 27 24 19 16
190 191 193 187 176 175 179 183 187 182 170 169 172 175 177 179 177 171 164 161 158 155 155 161 163 163 156 144 141 144 137 128 137 143 131 122 115 104 84 40 16 1 354 355 355 358 2 8 22 28 31 34 61 120 127 119 112 104 95 89 82 78 75 74 75 74 74 75 72 69 65 60 57 53 49 47 43 41 39 38 34 31 28 23 18
196 196 192 185 176 173 176 178 178 168 164 172 170 166 167 166 163 159 156 156 154 153 155 156 155 156 150 144 144 143 142 147 148 138 123 126 110 57 353 333 330 331 335 343 349 354 7 26 45 56 59 56 80 125 133 123 113 104 96 90 83 76 73 71 71 71 70 71 69 66 63 59 55 51 49 48 46 42 39 39 37 34 32 27 23
197 199 190 182 179 174 168 162 165 167 167 169 167 167 166 161 158 157 155 152 154 157 155 153 154 154 150 150 149 144 150 158 153 150 191 220 291 304 298 304 307 315 333 350 356 359 29 57 71 80 84 75 80 123 141 132 123 115 105 98 90 78 71 67 65 66 66 65 66 65 63 60 56 49 47 47 45 42 40 39 38 37 34 31 27
188 195 194 184 179 175 164 159 169 178 177 179 182 180 175 171 167 162 158 153 155 159 156 153 154 154 154 155 154 151 159 163 166 178 200 235 266 279 282 295 308 334 359 7 17 34 67 78 88 87 85 78 70 105 150 155 153 147 141 132 119 96 76 67 61 60 62 62 64 64 63 61 57 52 48 47 45 43 42 40 39 38 36 33 29
179 190 199 193 183 178 165 165 176 181 184 188 189 183 176 176 172 166 161 157 156 157 155 153 154 156 154 152 152 151 157 164 174 191 206 228 246 266 281 316 345 11 20 32 57 79 98 104 108 94 85 79 67 73 132 172 182 157 163 162 152 147 107 76 63 58 58 59 60 61 62 59 56 52 49 47 44 42 40 39 39 37 36 34 30
180 184 193 192 189 180 165 168 178 185 189 189 183 172 163 167 168 166 163 158 155 153 152 150 150 153 148 146 149 150 160 173 181 193 204 209 214 241 292 21 24 43 62 86 95 101 117 125 124 106 94 87 74 67 77 107 138 158 181 164 156 168 122 92 78 62 53 55 55 55 57 56 53 51 48 44 42 40 36 35 35 33 32 29 26
185 175 178 188 188 165 156 167 181 189 189 176 165 164 164 165 160 154 152 151 149 148 149 147 146 149 147 147 150 152 164 176 174 177 174 171 159 127 93 80 82 92 97 102 105 107 117 126 120 111 105 100 93 79 73 77 89 99 95 93 138 112 77 108 110 80 57 54 53 53 53 51 51 50 48 45 42 40 36 34 32 32 30 27 23
181 164 172 183 170 152 160 174 181 183 175 163 170 176 173 168 158 150 148 147 145 145 149 150 150 152 151 151 149 148 153 155 152 152 147 140 129 113 104 111 110 105 103 100 104 110 113 116 112 109 110 108 105 94 81 78 79 81 82 81 83 85 85 161 148 111 88 67 54 52 52 51 52 52 49 46 43 41 37 33 29 29 28 24 21
166 160 169 167 163 172 177 177 174 168 165 172 182 182 175 169 163 158 155 153 149 147 151 155 158 158 154 149 143 137 135 138 140 136 132 125 116 115 114 117 112 104 102 101 103 109 109 109 110 111 113 112 109 102 91 84 79 78 80 83 84 86 87 82 76 109 141 102 57 51 52 51 51 51 49 45 40 37 33 29 23 22 20 17 15
156 162 167 163 175 184 179 173 168 166 172 180 183 182 175 165 159 156 158 163 160 151 152 157 161 161 153 143 135 130 130 133 134 130 125 119 115 118 118 117 113 106 104 104 105 107 107 107 107 107 106 104 103 101 95 89 87 84 82 82 80 80 79 76 71 55 82 118 66 50 47 53 54 46 43 40 36 32 28 24 20 17 13 12 11
149 163 170 168 174 179 184 183 168 165 172 178 183 182 172 162 160 164 165 166 161 153 154 159 159 157 149 138 131 130 132 132 130 126 121 119 119 120 120 117 113 109 107 107 108 108 108 108 105 102 99 97 96 96 93 89 90 91 86 82 79 77 75 70 66 59 53 56 59 34 20 38 60 45 35 28 27 27 23 19 16 13 10 7 5
153 169 171 165 168 178 191 185 163 162 166 177 187 180 167 164 167 170 168 164 161 156 157 158 155 152 144 137 135 134 136 135 129 126 124 124 124 122 121 118 113 112 112 112 112 110 107 104 101 99 97 95 93 91 90 87 85 83 80 77 74 73 72 63 54 52 51 47 48 32 14 11 24 31 24 15 9 9 14 14 10 8 6 3 360
161 170 166 165 176 186 191 177 160 165 167 180 188 175 165 170 172 174 174 171 167 160 156 154 152 151 146 140 139 139 139 137 132 131 130 129 130 127 123 119 116 116 117 116 114 109 106 102 99 98 95 93 91 88 86 84 81 78 76 73 70 68 67 61 49 44 46 42 35 28 15 5 358 7 6 6 6 355 1 8 7 4 1 359 357